STARLINK-4719, 53774

Orbit data source: Space-Track

STARLINK-4719, 53774 is a payload satellite owned by SpaceX/Seattle (US) in LEO that was launched on Sun, 11 Sep 2022 UTC via an FALCON 9 launch vehicle from the Air Force Eastern Test Range (AFETR). Payload-class satellites include a variety of spacecraft equipped with specific instruments for various scientific and technological missions. These include communications satellites like Starlink; space stations such as the ISS; scientific satellites like the Hubble; Earth observation satellites from companies like Planet Labs, Umbra, and HawkEye 360; GPS; miniature CubeSats for education and research; and military/defense satellites.

Loading next visibility...
Identifier
53774, 2022-111B
Orbit
LEO
Country
Flag of USUS
Related business
Manufacturer
SpaceX/Seattle
Mission
Operational Commercial Communications
Bus & Motor
STARLINK, Unknown motor
Mass
305 kg wet, ~290 kg dry
Launch date (UTC)
2022-09-11 (4 years ago)
Launch vehicle
FALCON 9
Launch site
Air Force Eastern Test Range (AFETR)
Object type
Payload
Rocket body
Debris
Shape & HBR
Box + 1 Pan, 10.1 m
Radar Cross Section
13.562 m², Large (>1 m²)

Expand to show TLE details & history
Last TLE update: 17 hours ago

TLE from 17 hours ago
0 STARLINK-4719
1 53774U 22111B   26219.58582048  .00000859  00000-0  39453-4 0  9993
2 53774  53.1619 322.9845 0001127  74.8986 285.2141 15.31702601216535
Epoch: 2026-08-07T14:03Z
TLE epoch observation values (Epoch: 2026-08-07T14:03:34.889Z)
Latitude
0.00006°
Longitude
155.97977°
Altitude
471.43 km
Speed
7.632 km/s
True Right ascension
21h 31m 56s
True Declination
0° 00' 00"
Sunlit
Object was in full shadow at epoch
Visualization orbit readout
Latitude
Unknown
Longitude
Unknown
Altitude
Unknown
Speed
Unknown
Apparent Right ascension
Unknown
Apparent Declination
Unknown
Sunlit
N/A
Visualization observer readout
Local Sidereal Time
20:55:52
Azimuth
Unknown
Elevation
Unknown
Doppler factor
Unknown
Orbital elements
Apogee altitude
471.76 km
Perigee altitude
470.217 km
Semi-major axis
6,849.126 km
Eccentricity
0.00011
Inclination
53.1619°
RAAN
322.9845°
Arg. of periapsis
74.8986°
True anomaly
285.20164°
Mean anomaly
285.2141°
Eccentric anomaly
285.20787°
Mean motion
3.82905 °/min
Orbital period
94.02 mins
BSTAR
0.000039453
Loading maneuver chart data...
Computing Atmospheric mass density...
Loading historical data...
Loading historical data...
Loading historical data...
Loading historical data...
Loading historical data...
Loading historical data...
Loading historical data...

Documentation

Showing up to 5 results
|